Home   Weather   Trier   Past weeks

Flag for Germany Past Weather in Trier, Rhineland-Palatinate, Germany — Yesterday and Last 2 Weeks

45 °F

Partly sunny.

Feels Like: 44 °F
Forecast: 41 / 52 °F
Wind: 3 mph from North

Location: Spangdahlem

Current Time: Oct 21, 2016 at 1:21:31 PM

Latest Report: Oct 21, 2016 at 12:59 PM

Visibility: N/A

Pressure: 30.02 "Hg

Humidity: 82%

Dew Point: 40 °F

Location of TrierLocation

Past Weather in Trier — Graph


Trier Temperature Yesterday

Maximum temperature yesterday: 48 °F (at 12:58 PM)
Minimum temperature yesterday: 41 °F (at 12:04 AM)
Average temperature yesterday: 44 °F

High & Low Weather Summary for the Past Weeks

High64 °F (Oct 16, 3:58 PM)100% (Oct 10, 1:58 AM)30.27 "Hg (Oct 10, 1:58 AM)
Low35 °F (Oct 10, 6:58 AM)51% (Oct 11, 2:58 PM)29.65 "Hg (Oct 14, 4:58 PM)
Average47 °F86%30.05 "Hg
* Reported Oct 6 11:58 AM — Oct 21 11:58 AM, Trier, Weather by CustomWeather, © 2016

Note: Actual official high and low records may vary slightly from our data, if they occured in-between our weather recording intervals... More about our weather records


Trier Weather History for the Previous 24 Hours

Scroll right to see more
Time TempWeatherWind HumidityBarometerVisibility
11:58 AM
Fri, Oct 21
45 °FFog.5 mph87%30.02 "Hg6 mi
10:58 AM43 °FFog.5 mph100%30.01 "Hg4 mi
9:58 AM42 °FFog.5 mph99%30.01 "Hg1 mi
9:01 AM41 °FFog.6 mph100%29.96 "Hg3 mi
7:58 AM41 °FFog.5 mph100%29.95 "Hg1 mi
7:02 AM39 °FFog.3 mph100%29.95 "Hg3 mi
6:02 AM41 °FFog.3 mph93%29.94 "Hg5 mi
5:04 AM41 °FFog.2 mph100%29.94 "Hg5 mi
3:58 AM39 °FFog.3 mph99%29.95 "Hg5 mi
2:58 AM41 °FOvercast.2 mph100%29.95 "HgN/A
1:58 AM41 °FOvercast.3 mph95%29.93 "HgN/A
12:58 AM41 °FOvercast.No wind93%29.93 "HgN/A
11:58 PM
Thu, Oct 20
41 °FOvercast.6 mph93%29.93 "HgN/A
10:58 PM41 °FPassing clouds.6 mph94%29.93 "HgN/A
10:03 PM43 °FMostly cloudy.5 mph93%29.91 "HgN/A
9:58 PM45 °FOvercast.3 mph87%29.90 "HgN/A
8:58 PM44 °FPartly cloudy.3 mph91%29.88 "HgN/A
8:00 PM46 °FLight rain. Partly cloudy.8 mph93%29.87 "HgN/A
7:00 PM48 °FLight rain. Mostly cloudy.10 mph94%29.86 "HgN/A
5:58 PM47 °FRain. Fog.9 mph97%29.86 "Hg5 mi
4:58 PM48 °FLight rain. Overcast.6 mph94%29.87 "HgN/A
3:58 PM48 °FLight rain. Mostly cloudy.9 mph94%29.88 "HgN/A
3:04 PM48 °FDrizzle. Mostly cloudy.12 mph87%29.89 "HgN/A
2:58 PM48 °FPartly sunny.9 mph87%29.90 "HgN/A
2:04 PM48 °FMostly cloudy.10 mph87%29.90 "HgN/A
Weather by CustomWeather, © 2016

See weather overviewHow to use our weather pages